Location: Sabalos
(43.2860°N, 0.1414°E)
Time: 08:40:20
(UTC+00:00)

Cosmos 2058 - Pass Details

Date: 05 July 2020
Orbit: 562 x 584 km, 82.5° (Epoch: 14 August)

Event Time Altitude Azimuth Distance (km) Brightness Sun altitude
Exits shadow 23:01:12 34° 246° (WSW) 962 3.9 -22.5°
Maximum altitude 23:02:15 41° 283° (WNW) 849 3.9 -22.5°
Drops below altitude 10° 23:06:12 10° 354° (N) 1,887 6.6 -22.7°
Sets 23:08:29 0° 2° (N) 2,786 7.7 -22.8°
